Weather History for Moorhead, MN

Change the Weather History Date:

Saturday, April 26, 2014

  Actual Average (KFAR) Record (KFAR)
Temperature  
Mean Temperature 43 °F 50 °F  
Max Temperature 53 °F 62 °F 89 °F (1952)
Min Temperature 33 °F 37 °F 17 °F (2002)
Degree Days  
Heating Degree Days 22 16  
Month to date heating degree days 568  
Since 1 July heating degree days 8398  
Cooling Degree Days 0 0  
Month to date cooling degree days 0  
Year to date cooling degree days 0  
Moisture  
Dew Point 35 °F    
Average Humidity 73    
Maximum Humidity 100    
Minimum Humidity 38    
Precipitation  
Precipitation 0.05 in 0.06 in 1.74 in (1924)
Month to date precipitation 1.11  
Year to date precipitation 3.72  
Snow  
Snow 0.00 in 0.10 in 7.50 in (1994)
Month to date snowfall 2.8  
Since 1 July snowfall 49.9  
Snow Depth -    
Sea Level Pressure  
Sea Level Pressure 29.92 in    
Wind  
Wind Speed 8 mph (ESE)    
Max Wind Speed 17 mph    
Max Gust Speed 26 mph    
Visibility 10 miles    
Events Rain    
T = Trace of Precipitation, MM = Missing Value Source: NWS Daily Summary

Daily Weather History Graph

Daily Weather History Graph

Search for Another Location

Airport:

Trip Planner

Search our weather history database for the weather conditions in past years. The results will help you decide how hot, cold, wet, or windy it might be!

Date:

Astronomy

Apr. 26, 2014 Rise Set
Actual Time 6:19 AM CDT 8:30 PM CDT
Civil Twilight 5:46 AM CDT 9:03 PM CDT
Nautical Twilight 5:05 AM CDT 9:44 PM CDT
Astronomical Twilight 4:19 AM CDT 10:30 PM CDT
Moon 4:55 AM CDT (4/26) 5:50 PM CDT (4/26)
Length of Visible Light 15h 16m
Length of Day
14h 10m
Waning Crescent, 8% of the Moon is Illuminated
Apr 26
Waning Crescent
Apr 29
New
May 6
First Quarter
May 14
Full
May 21
Last Quarter

Hourly Weather History & Observations

Time (CDT) Temp. Windchill Dew Point Humidity Pressure Visibility Wind Dir Wind Speed Gust Speed Precip Events Conditions
12:15 AM 37.4 °F 32.1 °F 37.4 °F 100% 29.94 in 10.0 mi East 6.9 mph - N/A   Clear
12:35 AM 37.4 °F 32.8 °F 37.4 °F 100% 29.94 in 10.0 mi East 5.8 mph - N/A   Clear
12:54 AM 37.4 °F 32.8 °F 35.6 °F 93% 29.94 in 10.0 mi East 5.8 mph - N/A   Clear
1:15 AM 37.4 °F 32.8 °F 35.6 °F 93% 29.94 in 10.0 mi East 5.8 mph - N/A   Clear
1:35 AM 37.4 °F 32.8 °F 35.6 °F 93% 29.94 in 10.0 mi East 5.8 mph - N/A   Clear
1:54 AM 37.4 °F 33.8 °F 35.6 °F 93% 29.94 in 10.0 mi East 4.6 mph - N/A   Clear
2:15 AM 37.4 °F 34.9 °F 35.6 °F 93% 29.94 in 10.0 mi East 3.5 mph - N/A   Clear
2:35 AM 35.6 °F - 35.6 °F 100% 29.93 in 10.0 mi Calm Calm - N/A   Clear
2:54 AM 35.6 °F - 35.6 °F 100% 29.93 in 10.0 mi Calm Calm - N/A   Clear
3:15 AM 37.4 °F - 35.6 °F 93% 29.93 in 10.0 mi Calm Calm - N/A   Clear
3:35 AM 35.6 °F - 35.6 °F 100% 29.93 in 10.0 mi Calm Calm - N/A   Clear
3:54 AM 33.8 °F - 33.8 °F 100% 29.94 in 10.0 mi Calm Calm - N/A   Clear
4:15 AM 35.6 °F 32.8 °F 35.6 °F 100% 29.95 in 10.0 mi ESE 3.5 mph - N/A   Clear
4:34 AM 37.4 °F 33.8 °F 35.6 °F 93% 29.95 in 10.0 mi ESE 4.6 mph - N/A   Clear
4:55 AM 35.6 °F 31.7 °F 35.6 °F 100% 29.95 in 10.0 mi ESE 4.6 mph - N/A   Clear
5:15 AM 35.6 °F 31.7 °F 35.6 °F 100% 29.95 in 10.0 mi ESE 4.6 mph - N/A   Clear
5:34 AM 35.6 °F 31.7 °F 33.8 °F 93% 29.97 in 10.0 mi ESE 4.6 mph - N/A   Clear
5:55 AM 35.6 °F 30.7 °F 35.6 °F 100% 29.97 in 10.0 mi ESE 5.8 mph - N/A   Clear
6:14 AM 37.4 °F 32.8 °F 35.6 °F 93% 29.97 in 10.0 mi ESE 5.8 mph - N/A   Clear
6:35 AM 35.6 °F 29.9 °F 35.6 °F 100% 29.97 in 10.0 mi ESE 6.9 mph - N/A   Clear
6:55 AM 37.4 °F 32.1 °F 35.6 °F 93% 29.96 in 10.0 mi ESE 6.9 mph - N/A   Clear
7:14 AM 35.6 °F 30.7 °F 35.6 °F 100% 29.96 in 10.0 mi ESE 5.8 mph - N/A   Clear
7:35 AM 37.4 °F 32.1 °F 35.6 °F 93% 29.97 in 10.0 mi ESE 6.9 mph - N/A   Clear
7:55 AM 37.4 °F 31.4 °F 35.6 °F 93% 29.97 in 10.0 mi ESE 8.1 mph - N/A   Clear
8:14 AM 39.2 °F 33.6 °F 37.4 °F 93% 29.97 in 10.0 mi ESE 8.1 mph - N/A   Clear
8:35 AM 41.0 °F 35.2 °F 37.4 °F 87% 29.97 in 10.0 mi SE 9.2 mph - N/A   Clear
8:55 AM 42.8 °F 38.0 °F 37.4 °F 81% 29.97 in 10.0 mi SE 8.1 mph - N/A   Clear
9:14 AM 42.8 °F 36.6 °F 37.4 °F 81% 29.98 in 10.0 mi SE 11.5 mph - N/A   Clear
9:35 AM 42.8 °F 36.2 °F 37.4 °F 81% 29.97 in 10.0 mi SE 12.7 mph 18.4 mph N/A   Clear
9:55 AM 44.6 °F 38.1 °F 37.4 °F 76% 29.97 in 10.0 mi SE 13.8 mph - N/A   Clear
10:14 AM 44.6 °F 39.7 °F 37.4 °F 76% 29.96 in 10.0 mi SE 9.2 mph - N/A   Clear
10:35 AM 44.6 °F 38.1 °F 35.6 °F 71% 29.96 in 10.0 mi SE 13.8 mph 19.6 mph N/A   Clear
10:55 AM 46.4 °F 41.1 °F 37.4 °F 71% 29.95 in 10.0 mi SE 11.5 mph - N/A   Clear
11:15 AM 46.4 °F 40.4 °F 35.6 °F 66% 29.95 in 10.0 mi SE 13.8 mph - N/A   Clear
11:35 AM 46.4 °F 40.7 °F 35.6 °F 66% 29.95 in 10.0 mi SSE 12.7 mph 20.7 mph N/A   Clear
11:54 AM 48.2 °F - 35.6 °F 62% 29.94 in 10.0 mi SSE 13.8 mph 20.7 mph N/A   Clear
12:15 PM 48.2 °F - 37.4 °F 66% 29.94 in 10.0 mi SSE 15.0 mph 20.7 mph N/A   Clear
12:35 PM 50.0 °F - 37.4 °F 62% 29.93 in 10.0 mi ESE 11.5 mph - N/A   Clear
12:55 PM 50.0 °F - 37.4 °F 62% 29.93 in 10.0 mi SE 15.0 mph - N/A   Clear
1:15 PM 50.0 °F - 37.4 °F 62% 29.93 in 10.0 mi SE 13.8 mph - N/A   Clear
1:34 PM 50.0 °F - 35.6 °F 58% 29.93 in 10.0 mi SE 12.7 mph 18.4 mph N/A   Clear
1:55 PM 51.8 °F - 35.6 °F 54% 29.93 in 10.0 mi ESE 12.7 mph 18.4 mph N/A   Clear
2:15 PM 51.8 °F - 35.6 °F 54% 29.93 in 10.0 mi ESE 15.0 mph 20.7 mph N/A   Clear
2:34 PM 51.8 °F - 35.6 °F 54% 29.92 in 10.0 mi ESE 12.7 mph 18.4 mph N/A   Clear
2:55 PM 51.8 °F - 35.6 °F 54% 29.90 in 10.0 mi ESE 12.7 mph 20.7 mph N/A   Clear
3:15 PM 53.6 °F - 35.6 °F 51% 29.89 in 10.0 mi ESE 16.1 mph 21.9 mph N/A   Clear
3:34 PM 53.6 °F - 35.6 °F 51% 29.88 in 10.0 mi East 17.3 mph - N/A   Clear
3:55 PM 53.6 °F - 35.6 °F 51% 29.87 in 10.0 mi East 16.1 mph 21.9 mph N/A   Clear
4:15 PM 53.6 °F - 33.8 °F 47% 29.86 in 10.0 mi East 13.8 mph - N/A   Clear
4:34 PM 53.6 °F - 30.2 °F 41% 29.86 in 10.0 mi ESE 16.1 mph 23.0 mph N/A   Clear
4:55 PM 53.6 °F - 30.2 °F 41% 29.85 in 10.0 mi ESE 15.0 mph 23.0 mph N/A   Clear
5:15 PM 53.6 °F - 28.4 °F 38% 29.86 in 10.0 mi ESE 16.1 mph 24.2 mph N/A   Clear
5:34 PM 53.6 °F - 28.4 °F 38% 29.86 in 10.0 mi ESE 17.3 mph 23.0 mph N/A   Clear
5:55 PM 53.6 °F - 28.4 °F 38% 29.85 in 10.0 mi ESE 16.1 mph 20.7 mph N/A   Clear
6:14 PM 53.6 °F - 33.8 °F 47% 29.85 in 10.0 mi East 13.8 mph 18.4 mph N/A   Clear
6:35 PM 53.6 °F - 32.0 °F 44% 29.85 in 10.0 mi East 12.7 mph 23.0 mph N/A   Clear
6:55 PM 53.6 °F - 28.4 °F 38% 29.84 in 10.0 mi ESE 16.1 mph 21.9 mph N/A   Clear
7:14 PM 51.8 °F - 30.2 °F 44% 29.84 in 10.0 mi ESE 11.5 mph 19.6 mph N/A   Clear
7:35 PM 51.8 °F - 33.8 °F 50% 29.84 in 10.0 mi ESE 9.2 mph - N/A   Clear
7:55 PM 51.8 °F - 33.8 °F 50% 29.86 in 10.0 mi ESE 8.1 mph - N/A   Clear
8:14 PM 51.8 °F - 33.8 °F 50% 29.87 in 10.0 mi ESE 8.1 mph - N/A   Clear
8:35 PM 50.0 °F - 33.8 °F 54% 29.87 in 10.0 mi ESE 10.4 mph 16.1 mph N/A   Scattered Clouds
8:54 PM 50.0 °F - 33.8 °F 54% 29.88 in 10.0 mi ESE 9.2 mph - N/A   Scattered Clouds
9:15 PM 48.2 °F - 33.8 °F 58% 29.90 in 10.0 mi SE 10.4 mph 16.1 mph N/A   Clear
9:35 PM 48.2 °F - 33.8 °F 58% 29.90 in 10.0 mi SE 8.1 mph - N/A   Clear
9:54 PM 48.2 °F - 33.8 °F 58% 29.89 in 10.0 mi SE 11.5 mph 17.3 mph N/A   Clear
10:15 PM 48.2 °F - 35.6 °F 62% 29.90 in 10.0 mi SE 9.2 mph 17.3 mph N/A Rain Rain
10:35 PM 44.6 °F 38.4 °F 39.2 °F 81% 29.88 in 10.0 mi ESE 12.7 mph 19.6 mph 0.02 in Rain Rain
10:54 PM 44.6 °F 37.4 °F 39.2 °F 81% 29.87 in 10.0 mi ESE 16.1 mph 23.0 mph 0.05 in Rain Light Rain
11:15 PM 44.6 °F 38.4 °F 39.2 °F 81% 29.86 in 10.0 mi ESE 12.7 mph 19.6 mph N/A   Light Drizzle
11:35 PM 44.6 °F 37.8 °F 39.2 °F 81% 29.85 in 10.0 mi ESE 15.0 mph 26.5 mph N/A Rain Light Rain
11:54 PM 44.6 °F 37.4 °F 39.2 °F 81% 29.85 in 10.0 mi ESE 16.1 mph 25.3 mph N/A   Light Drizzle